Time,TemperatureF,DewpointF,PressureIn,WindDirection,WindDirectionDegrees,WindSpeedMPH,WindSpeedGustMPH,Humidity,HourlyPrecipIn,Conditions,Clouds,dailyrainin,SoftwareType,DateUTC
2013-03-07 00:00:00,29.2,24.7,30.05,WNW,291,19.0,19.0,83,0.00,,,0.00,Wunderground v.1.15,2013-03-07 05:00:00,
2013-03-07 00:01:00,29.2,24.7,30.05,NW,313,18.0,26.0,83,0.00,,,0.00,Wunderground v.1.15,2013-03-07 05:01:00,
2013-03-07 00:02:00,29.2,24.7,30.05,West,273,19.0,26.0,83,0.00,,,0.00,Wunderground v.1.15,2013-03-07 05:02:00,
2013-03-07 00:07:00,29.1,24.6,30.05,NW,304,17.0,26.0,83,0.00,,,0.00,Wunderground v.1.15,2013-03-07 05:07:00,
2013-03-07 00:12:00,29.0,24.5,30.05,West,281,15.0,27.0,83,0.00,,,0.00,Wunderground v.1.15,2013-03-07 05:12:00,
2013-03-07 00:17:00,29.0,24.5,30.05,NW,317,13.0,27.0,83,0.00,,,0.00,Wunderground v.1.15,2013-03-07 05:17:00,
2013-03-07 00:23:00,28.9,24.4,30.05,WNW,302,12.0,19.0,83,0.00,,,0.00,Wunderground v.1.15,2013-03-07 05:23:00,
2013-03-07 00:28:00,28.8,24.6,30.04,NNW,327,11.0,19.0,84,0.00,,,0.00,Wunderground v.1.15,2013-03-07 05:28:00,
2013-03-07 00:33:00,28.7,24.5,30.04,NW,316,11.0,18.0,84,0.00,,,0.00,Wunderground v.1.15,2013-03-07 05:33:00,
2013-03-07 00:39:00,28.6,24.4,30.04,WNW,295,12.0,18.0,84,0.00,,,0.00,Wunderground v.1.15,2013-03-07 05:39:00,
2013-03-07 00:45:00,28.5,24.3,30.04,NW,315,12.0,17.0,84,0.00,,,0.00,Wunderground v.1.15,2013-03-07 05:45:00,
2013-03-07 00:50:00,28.4,24.5,30.04,NW,323,12.0,12.0,85,0.00,,,0.00,Wunderground v.1.15,2013-03-07 05:50:00,
2013-03-07 00:55:00,28.2,24.3,30.04,NW,314,12.0,12.0,85,0.00,,,0.00,Wunderground v.1.15,2013-03-07 05:55:00,
2013-03-07 01:00:00,28.1,24.2,30.04,WNW,300,12.0,12.0,85,0.00,,,0.00,Wunderground v.1.15,2013-03-07 06:00:00,
2013-03-07 01:06:00,28.0,24.1,30.04,NW,319,12.0,16.0,85,0.00,,,0.00,Wunderground v.1.15,2013-03-07 06:06:00,
2013-03-07 01:11:00,28.0,24.1,30.04,NW,325,10.0,11.0,85,0.00,,,0.00,Wunderground v.1.15,2013-03-07 06:11:00,
2013-03-07 01:16:00,27.9,24.0,30.04,West,281,8.0,11.0,85,0.00,,,0.00,Wunderground v.1.15,2013-03-07 06:16:00,
2013-03-07 01:21:00,27.8,23.9,30.04,North,355,6.0,8.0,85,0.00,,,0.00,Wunderground v.1.15,2013-03-07 06:21:00,
2013-03-07 01:26:00,27.8,24.2,30.04,NW,311,6.0,11.0,86,0.00,,,0.00,Wunderground v.1.15,2013-03-07 06:26:00,
2013-03-07 01:31:00,27.6,24.0,30.04,NW,306,8.0,10.0,86,0.00,,,0.00,Wunderground v.1.15,2013-03-07 06:31:00,
2013-03-07 01:36:00,27.6,24.0,30.04,NW,306,8.0,10.0,86,0.00,,,0.00,Wunderground v.1.15,2013-03-07 06:36:00,
2013-03-07 01:42:00,27.5,23.9,30.05,NW,306,5.0,7.0,86,0.00,,,0.00,Wunderground v.1.15,2013-03-07 06:42:00,
2013-03-07 01:47:00,27.4,23.8,30.05,NW,306,4.0,8.0,86,0.00,,,0.00,Wunderground v.1.15,2013-03-07 06:47:00,
2013-03-07 01:52:00,27.2,23.8,30.05,NW,306,7.0,11.0,87,0.00,,,0.00,Wunderground v.1.15,2013-03-07 06:52:00,
2013-03-07 01:57:00,27.1,23.7,30.05,NW,306,9.0,13.0,87,0.00,,,0.00,Wunderground v.1.15,2013-03-07 06:57:00,
2013-03-07 02:02:00,27.0,23.9,30.05,NW,306,9.0,10.0,88,0.00,,,0.00,Wunderground v.1.15,2013-03-07 07:02:00,
2013-03-07 02:08:00,26.9,23.8,30.05,WNW,294,10.0,17.0,88,0.00,,,0.00,Wunderground v.1.15,2013-03-07 07:08:00,
2013-03-07 02:13:00,26.8,23.7,30.06,NW,314,9.0,10.0,88,0.00,,,0.00,Wunderground v.1.15,2013-03-07 07:13:00,
2013-03-07 02:18:00,26.7,23.6,30.06,NW,314,7.0,10.0,88,0.00,,,0.00,Wunderground v.1.15,2013-03-07 07:18:00,
2013-03-07 02:23:00,26.6,23.8,30.06,NW,313,6.0,11.0,89,0.00,,,0.00,Wunderground v.1.15,2013-03-07 07:23:00,
2013-03-07 02:28:00,26.5,23.7,30.06,NW,313,7.0,11.0,89,0.00,,,0.00,Wunderground v.1.15,2013-03-07 07:28:00,
2013-03-07 02:34:00,26.4,23.6,30.06,NW,313,8.0,11.0,89,0.00,,,0.00,Wunderground v.1.15,2013-03-07 07:34:00,
2013-03-07 02:39:00,26.3,23.5,30.06,NW,308,10.0,17.0,89,0.00,,,0.00,Wunderground v.1.15,2013-03-07 07:39:00,
2013-03-07 02:44:00,26.4,23.9,30.06,NW,305,12.0,14.0,90,0.00,,,0.00,Wunderground v.1.15,2013-03-07 07:44:00,
2013-03-07 02:50:00,26.4,23.9,30.06,NW,315,14.0,14.0,90,0.00,,,0.00,Wunderground v.1.15,2013-03-07 07:50:00,
2013-03-07 02:55:00,26.4,23.9,30.06,WNW,299,14.0,20.0,90,0.00,,,0.00,Wunderground v.1.15,2013-03-07 07:55:00,
2013-03-07 03:01:00,26.4,23.9,30.06,WNW,286,15.0,16.0,90,0.00,,,0.00,Wunderground v.1.15,2013-03-07 08:01:00,
2013-03-07 03:06:00,26.4,23.9,30.06,NW,314,15.0,18.0,90,0.00,,,0.00,Wunderground v.1.15,2013-03-07 08:06:00,
2013-03-07 03:11:00,26.5,24.0,30.06,NW,323,16.0,18.0,90,0.00,,,0.00,Wunderground v.1.15,2013-03-07 08:11:00,
2013-03-07 03:16:00,26.4,23.9,30.06,WNW,288,17.0,22.0,90,0.00,,,0.00,Wunderground v.1.15,2013-03-07 08:16:00,
2013-03-07 03:22:00,26.4,23.9,30.06,NW,313,18.0,18.0,90,0.00,,,0.00,Wunderground v.1.15,2013-03-07 08:22:00,
2013-03-07 03:27:00,26.4,23.9,30.07,NW,314,18.0,22.0,90,0.00,,,0.00,Wunderground v.1.15,2013-03-07 08:27:00,
2013-03-07 03:33:00,26.4,23.9,30.07,NW,308,17.0,18.0,90,0.00,,,0.00,Wunderground v.1.15,2013-03-07 08:33:00,
2013-03-07 03:38:00,26.3,23.8,30.07,North,350,16.0,18.0,90,0.00,,,0.00,Wunderground v.1.15,2013-03-07 08:38:00,
2013-03-07 03:43:00,26.2,23.9,30.08,North,350,16.0,18.0,91,0.00,,,0.00,Wunderground v.1.15,2013-03-07 08:43:00,
2013-03-07 03:48:00,26.1,23.8,30.08,WNW,294,16.0,22.0,91,0.00,,,0.00,Wunderground v.1.15,2013-03-07 08:48:00,
2013-03-07 03:54:00,26.1,23.8,30.08,NW,313,15.0,18.0,91,0.00,,,0.00,Wunderground v.1.15,2013-03-07 08:54:00,
2013-03-07 03:59:00,26.0,23.7,30.08,NW,313,14.0,18.0,91,0.00,,,0.00,Wunderground v.1.15,2013-03-07 08:59:00,
2013-03-07 04:05:00,25.9,23.6,30.08,NW,319,14.0,21.0,91,0.00,,,0.00,Wunderground v.1.15,2013-03-07 09:05:00,
2013-03-07 04:10:00,25.8,23.5,30.08,WNW,296,15.0,15.0,91,0.00,,,0.00,Wunderground v.1.15,2013-03-07 09:10:00,
2013-03-07 04:15:00,25.8,23.5,30.09,WNW,288,14.0,16.0,91,0.00,,,0.00,Wunderground v.1.15,2013-03-07 09:15:00,
2013-03-07 04:21:00,25.7,23.7,30.09,WNW,291,14.0,16.0,92,0.00,,,0.00,Wunderground v.1.15,2013-03-07 09:21:00,
2013-03-07 04:26:00,25.7,23.7,30.09,NW,323,15.0,18.0,92,0.00,,,0.00,Wunderground v.1.15,2013-03-07 09:26:00,
2013-03-07 04:32:00,25.7,23.7,30.08,NW,306,15.0,15.0,92,0.00,,,0.00,Wunderground v.1.15,2013-03-07 09:32:00,
2013-03-07 04:37:00,25.7,23.7,30.08,WNW,284,14.0,17.0,92,0.00,,,0.00,Wunderground v.1.15,2013-03-07 09:37:00,
2013-03-07 04:43:00,25.8,23.8,30.09,NW,321,14.0,15.0,92,0.00,,,0.00,Wunderground v.1.15,2013-03-07 09:43:00,
2013-03-07 04:48:00,25.8,23.8,30.09,West,273,14.0,17.0,92,0.00,,,0.00,Wunderground v.1.15,2013-03-07 09:48:00,
2013-03-07 04:53:00,25.8,23.8,30.09,WNW,299,15.0,17.0,92,0.00,,,0.00,Wunderground v.1.15,2013-03-07 09:53:00,
2013-03-07 04:59:00,25.8,23.8,30.10,NW,307,15.0,20.0,92,0.00,,,0.00,Wunderground v.1.15,2013-03-07 09:59:00,
2013-03-07 05:04:00,25.8,23.5,30.10,NNW,333,15.0,24.0,91,0.00,,,0.00,Wunderground v.1.15,2013-03-07 10:04:00,
2013-03-07 05:10:00,25.8,23.5,30.10,NW,316,16.0,16.0,91,0.00,,,0.00,Wunderground v.1.15,2013-03-07 10:10:00,
2013-03-07 05:15:00,25.8,23.5,30.11,NW,309,15.0,16.0,91,0.00,,,0.00,Wunderground v.1.15,2013-03-07 10:15:00,
2013-03-07 05:20:00,25.7,23.4,30.11,NW,317,13.0,13.0,91,0.00,,,0.00,Wunderground v.1.15,2013-03-07 10:20:00,
2013-03-07 05:26:00,25.6,23.6,30.11,NW,316,10.0,14.0,92,0.00,,,0.00,Wunderground v.1.15,2013-03-07 10:26:00,
2013-03-07 05:31:00,25.4,23.4,30.10,NW,323,11.0,16.0,92,0.00,,,0.00,Wunderground v.1.15,2013-03-07 10:31:00,
2013-03-07 05:36:00,25.4,23.4,30.10,NW,306,14.0,25.0,92,0.00,,,0.00,Wunderground v.1.15,2013-03-07 10:36:00,
2013-03-07 05:42:00,25.4,23.4,30.11,WNW,296,16.0,24.0,92,0.00,,,0.00,Wunderground v.1.15,2013-03-07 10:42:00,
2013-03-07 05:47:00,25.3,23.3,30.11,NW,314,14.0,24.0,92,0.00,,,0.00,Wunderground v.1.15,2013-03-07 10:47:00,
2013-03-07 05:53:00,25.3,23.3,30.11,NW,309,14.0,15.0,92,0.00,,,0.00,Wunderground v.1.15,2013-03-07 10:53:00,
2013-03-07 05:58:00,25.3,23.3,30.12,NW,313,14.0,20.0,92,0.00,,,0.00,Wunderground v.1.15,2013-03-07 10:58:00,
2013-03-07 06:03:00,25.3,23.3,30.12,NW,315,14.0,16.0,92,0.00,,,0.00,Wunderground v.1.15,2013-03-07 11:03:00,
2013-03-07 06:08:00,25.3,23.3,30.12,WNW,302,15.0,21.0,92,0.00,,,0.00,Wunderground v.1.15,2013-03-07 11:08:00,
2013-03-07 06:13:00,25.2,23.2,30.13,WNW,296,14.0,18.0,92,0.00,,,0.00,Wunderground v.1.15,2013-03-07 11:13:00,
2013-03-07 06:19:00,25.2,23.2,30.13,NW,311,13.0,18.0,92,0.00,,,0.00,Wunderground v.1.15,2013-03-07 11:19:00,
2013-03-07 06:24:00,25.2,23.2,30.13,NW,304,14.0,16.0,92,0.00,,,0.00,Wunderground v.1.15,2013-03-07 11:24:00,
2013-03-07 06:30:00,25.2,23.2,30.12,NW,305,14.0,14.0,92,0.00,,,0.00,Wunderground v.1.15,2013-03-07 11:30:00,
2013-03-07 06:35:00,25.1,23.1,30.12,WNW,300,15.0,22.0,92,0.00,,,0.00,Wunderground v.1.15,2013-03-07 11:35:00,
2013-03-07 06:40:00,25.2,23.2,30.12,NW,315,14.0,16.0,92,0.00,,,0.00,Wunderground v.1.15,2013-03-07 11:40:00,
2013-03-07 06:45:00,25.2,23.2,30.12,NW,309,13.0,16.0,92,0.00,,,0.00,Wunderground v.1.15,2013-03-07 11:45:00,
2013-03-07 06:51:00,25.2,23.2,30.12,NW,313,12.0,15.0,92,0.00,,,0.00,Wunderground v.1.15,2013-03-07 11:51:00,
2013-03-07 06:56:00,25.2,23.2,30.12,NW,314,11.0,15.0,92,0.00,,,0.00,Wunderground v.1.15,2013-03-07 11:56:00,
2013-03-07 07:02:00,25.2,23.2,30.12,NW,319,9.0,10.0,92,0.00,,,0.00,Wunderground v.1.15,2013-03-07 12:02:00,
2013-03-07 07:07:00,25.2,23.2,30.12,NW,326,9.0,12.0,92,0.00,,,0.00,Wunderground v.1.15,2013-03-07 12:07:00,
2013-03-07 07:12:00,25.2,23.2,30.13,NW,314,10.0,11.0,92,0.00,,,0.00,Wunderground v.1.15,2013-03-07 12:12:00,
2013-03-07 07:18:00,25.2,23.2,30.13,WNW,296,11.0,13.0,92,0.00,,,0.00,Wunderground v.1.15,2013-03-07 12:18:00,
2013-03-07 07:23:00,25.3,23.3,30.13,NNW,341,10.0,11.0,92,0.00,,,0.00,Wunderground v.1.15,2013-03-07 12:23:00,
2013-03-07 07:29:00,25.6,23.9,30.13,NW,304,9.0,12.0,93,0.00,,,0.00,Wunderground v.1.15,2013-03-07 12:29:00,
2013-03-07 07:35:00,26.0,24.3,30.13,WNW,288,8.0,13.0,93,0.00,,,0.00,Wunderground v.1.15,2013-03-07 12:35:00,
2013-03-07 07:40:00,26.1,24.1,30.13,WNW,288,6.0,8.0,92,0.00,,,0.00,Wunderground v.1.15,2013-03-07 12:40:00,
2013-03-07 07:45:00,26.2,23.9,30.15,WNW,303,6.0,8.0,91,0.00,,,0.00,Wunderground v.1.15,2013-03-07 12:45:00,
2013-03-07 07:50:00,26.1,23.8,30.15,NW,319,7.0,10.0,91,0.00,,,0.00,Wunderground v.1.15,2013-03-07 12:50:00,
2013-03-07 07:55:00,26.1,23.8,30.15,NW,319,9.0,16.0,91,0.00,,,0.00,Wunderground v.1.15,2013-03-07 12:55:00,
2013-03-07 08:00:00,26.3,24.0,30.15,NW,317,13.0,25.0,91,0.00,,,0.00,Wunderground v.1.15,2013-03-07 13:00:00,
2013-03-07 08:06:00,26.6,24.3,30.15,NW,309,15.0,28.0,91,0.00,,,0.00,Wunderground v.1.15,2013-03-07 13:06:00,
2013-03-07 08:11:00,26.9,24.4,30.15,NW,313,16.0,18.0,90,0.00,,,0.00,Wunderground v.1.15,2013-03-07 13:11:00,
2013-03-07 08:17:00,27.1,24.6,30.15,NW,304,15.0,19.0,90,0.00,,,0.00,Wunderground v.1.15,2013-03-07 13:17:00,
2013-03-07 08:22:00,27.3,24.8,30.15,NNW,340,14.0,15.0,90,0.00,,,0.00,Wunderground v.1.15,2013-03-07 13:22:00,
2013-03-07 08:27:00,27.7,25.2,30.15,WNW,301,12.0,15.0,90,0.00,,,0.00,Wunderground v.1.15,2013-03-07 13:27:00,
2013-03-07 08:32:00,28.2,25.4,30.15,NW,311,9.0,11.0,89,0.00,,,0.00,Wunderground v.1.15,2013-03-07 13:32:00,
2013-03-07 08:37:00,28.5,25.4,30.15,WNW,298,11.0,18.0,88,0.00,,,0.00,Wunderground v.1.15,2013-03-07 13:37:00,
2013-03-07 08:42:00,28.8,25.7,30.15,WNW,289,11.0,13.0,88,0.00,,,0.00,Wunderground v.1.15,2013-03-07 13:42:00,
2013-03-07 08:48:00,29.0,25.6,30.15,NW,309,10.0,14.0,87,0.00,,,0.00,Wunderground v.1.15,2013-03-07 13:48:00,
2013-03-07 08:53:00,29.2,25.5,30.15,NW,313,11.0,21.0,86,0.00,,,0.00,Wunderground v.1.15,2013-03-07 13:53:00,
2013-03-07 08:58:00,29.4,26.0,30.16,NW,316,10.0,21.0,87,0.00,,,0.00,Wunderground v.1.15,2013-03-07 13:58:00,
2013-03-07 09:03:00,29.7,26.0,30.16,NNW,345,10.0,14.0,86,0.00,,,0.00,Wunderground v.1.15,2013-03-07 14:03:00,
2013-03-07 09:08:00,30.0,26.0,30.16,NNW,335,11.0,14.0,85,0.00,,,0.00,Wunderground v.1.15,2013-03-07 14:08:00,
2013-03-07 09:14:00,30.6,26.6,30.15,NW,323,11.0,16.0,85,0.00,,,0.00,Wunderground v.1.15,2013-03-07 14:14:00,
2013-03-07 09:19:00,31.3,27.0,30.15,NW,307,11.0,17.0,84,0.00,,,0.00,Wunderground v.1.15,2013-03-07 14:19:00,
2013-03-07 09:25:00,32.1,27.2,30.15,NNW,333,12.0,16.0,82,0.00,,,0.00,Wunderground v.1.15,2013-03-07 14:25:00,
2013-03-07 09:30:00,32.7,27.8,30.15,NW,317,10.0,10.0,82,0.00,,,0.00,Wunderground v.1.15,2013-03-07 14:30:00,
2013-03-07 09:35:00,33.4,27.9,30.15,NW,319,8.0,11.0,80,0.00,,,0.00,Wunderground v.1.15,2013-03-07 14:35:00,
2013-03-07 09:40:00,33.8,27.7,30.15,NW,311,10.0,22.0,78,0.00,,,0.00,Wunderground v.1.15,2013-03-07 14:40:00,
2013-03-07 09:46:00,33.4,27.0,30.14,NW,316,16.0,24.0,77,0.00,,,0.00,Wunderground v.1.15,2013-03-07 14:46:00,
2013-03-07 09:52:00,33.3,27.2,30.14,WNW,300,18.0,26.0,78,0.00,,,0.00,Wunderground v.1.15,2013-03-07 14:52:00,
2013-03-07 09:57:00,34.1,28.6,30.14,WNW,302,15.0,26.0,80,0.00,,,0.00,Wunderground v.1.15,2013-03-07 14:57:00,
2013-03-07 10:02:00,35.1,28.6,30.14,NW,315,12.0,18.0,77,0.00,,,0.00,Wunderground v.1.15,2013-03-07 15:02:00,
2013-03-07 10:08:00,35.0,27.5,30.14,NW,326,14.0,25.0,74,0.00,,,0.00,Wunderground v.1.15,2013-03-07 15:08:00,
2013-03-07 10:13:00,35.0,27.5,30.14,NW,306,17.0,27.0,74,0.00,,,0.00,Wunderground v.1.15,2013-03-07 15:13:00,
2013-03-07 10:18:00,35.6,28.1,30.14,NW,313,19.0,27.0,74,0.00,,,0.00,Wunderground v.1.15,2013-03-07 15:18:00,
2013-03-07 10:23:00,35.9,27.7,30.14,NW,317,18.0,19.0,72,0.00,,,0.00,Wunderground v.1.15,2013-03-07 15:23:00,
2013-03-07 10:29:00,36.1,27.9,30.14,NW,319,17.0,21.0,72,0.00,,,0.00,Wunderground v.1.15,2013-03-07 15:29:00,
2013-03-07 10:34:00,36.5,28.3,30.14,NNW,340,17.0,19.0,72,0.00,,,0.00,Wunderground v.1.15,2013-03-07 15:34:00,
2013-03-07 10:40:00,37.4,28.9,30.14,WNW,302,16.0,16.0,71,0.00,,,0.00,Wunderground v.1.15,2013-03-07 15:40:00,
2013-03-07 10:46:00,38.1,28.5,30.14,NNW,328,18.0,22.0,68,0.00,,,0.00,Wunderground v.1.15,2013-03-07 15:46:00,
2013-03-07 10:52:00,38.2,28.2,30.14,NW,314,17.0,19.0,67,0.00,,,0.00,Wunderground v.1.15,2013-03-07 15:52:00,
2013-03-07 10:57:00,39.0,28.6,30.14,NW,317,13.0,19.0,66,0.00,,,0.00,Wunderground v.1.15,2013-03-07 15:57:00,
2013-03-07 11:02:00,39.3,28.1,30.14,NW,314,13.0,15.0,64,0.00,,,0.00,Wunderground v.1.15,2013-03-07 16:02:00,
2013-03-07 11:08:00,39.6,28.8,30.14,NW,313,11.0,15.0,65,0.00,,,0.00,Wunderground v.1.15,2013-03-07 16:08:00,
2013-03-07 11:13:00,39.5,27.9,30.13,WNW,300,11.0,18.0,63,0.00,,,0.00,Wunderground v.1.15,2013-03-07 16:13:00,
2013-03-07 11:18:00,39.7,28.5,30.13,NNW,344,12.0,18.0,64,0.00,,,0.00,Wunderground v.1.15,2013-03-07 16:18:00,
2013-03-07 11:23:00,40.1,28.1,30.13,NW,325,13.0,19.0,62,0.00,,,0.00,Wunderground v.1.15,2013-03-07 16:23:00,
2013-03-07 11:28:00,40.3,27.9,30.13,NNW,329,14.0,19.0,61,0.00,,,0.00,Wunderground v.1.15,2013-03-07 16:28:00,
2013-03-07 11:33:00,40.7,29.1,30.13,NW,311,14.0,22.0,63,0.00,,,0.00,Wunderground v.1.15,2013-03-07 16:33:00,
2013-03-07 11:39:00,41.1,29.5,30.13,WNW,293,14.0,22.0,63,0.00,,,0.00,Wunderground v.1.15,2013-03-07 16:39:00,
2013-03-07 11:44:00,41.8,29.7,30.14,NW,317,10.0,14.0,62,0.00,,,0.00,Wunderground v.1.15,2013-03-07 16:44:00,
2013-03-07 11:50:00,41.8,29.3,30.14,NNW,329,9.0,9.0,61,0.00,,,0.00,Wunderground v.1.15,2013-03-07 16:50:00,
2013-03-07 11:55:00,42.2,30.1,30.14,NW,326,9.0,13.0,62,0.00,,,0.00,Wunderground v.1.15,2013-03-07 16:55:00,
2013-03-07 12:00:00,42.5,30.0,30.13,NNW,348,9.0,9.0,61,0.00,,,0.00,Wunderground v.1.15,2013-03-07 17:00:00,
2013-03-07 12:05:00,42.6,29.7,30.13,NW,311,10.0,15.0,60,0.00,,,0.00,Wunderground v.1.15,2013-03-07 17:05:00,
2013-03-07 12:11:00,43.1,30.1,30.13,NW,325,9.0,13.0,60,0.00,,,0.00,Wunderground v.1.15,2013-03-07 17:11:00,
2013-03-07 12:16:00,43.8,30.8,30.12,NW,314,8.0,13.0,60,0.00,,,0.00,Wunderground v.1.15,2013-03-07 17:16:00,
2013-03-07 12:22:00,44.6,30.7,30.12,NNW,341,7.0,10.0,58,0.00,,,0.00,Wunderground v.1.15,2013-03-07 17:22:00,
2013-03-07 12:27:00,45.3,30.5,30.12,NNW,327,8.0,12.0,56,0.00,,,0.00,Wunderground v.1.15,2013-03-07 17:27:00,
2013-03-07 12:32:00,44.9,30.1,30.12,NW,309,10.0,17.0,56,0.00,,,0.00,Wunderground v.1.15,2013-03-07 17:32:00,
2013-03-07 12:37:00,45.1,29.9,30.12,NW,323,11.0,17.0,55,0.00,,,0.00,Wunderground v.1.15,2013-03-07 17:37:00,
2013-03-07 12:43:00,45.5,30.3,30.11,NNW,339,10.0,19.0,55,0.00,,,0.00,Wunderground v.1.15,2013-03-07 17:43:00,
2013-03-07 12:48:00,46.1,30.8,30.11,NW,321,10.0,19.0,55,0.00,,,0.00,Wunderground v.1.15,2013-03-07 17:48:00,
2013-03-07 12:54:00,46.3,29.6,30.11,NNW,331,11.0,14.0,52,0.00,,,0.00,Wunderground v.1.15,2013-03-07 17:54:00,
2013-03-07 12:59:00,46.4,30.2,30.10,NW,323,15.0,25.0,53,0.00,,,0.00,Wunderground v.1.15,2013-03-07 17:59:00,
2013-03-07 13:04:00,46.5,29.8,30.10,NW,325,16.0,20.0,52,0.00,,,0.00,Wunderground v.1.15,2013-03-07 18:04:00,
2013-03-07 13:09:00,47.1,30.4,30.10,WNW,303,15.0,21.0,52,0.00,,,0.00,Wunderground v.1.15,2013-03-07 18:09:00,
2013-03-07 13:15:00,47.9,31.6,30.09,NW,319,14.0,21.0,53,0.00,,,0.00,Wunderground v.1.15,2013-03-07 18:15:00,
2013-03-07 13:20:00,48.6,31.8,30.09,NNW,331,12.0,14.0,52,0.00,,,0.00,Wunderground v.1.15,2013-03-07 18:20:00,
2013-03-07 13:25:00,49.2,32.3,30.09,NNW,333,12.0,20.0,52,0.00,,,0.00,Wunderground v.1.15,2013-03-07 18:25:00,
2013-03-07 13:30:00,49.5,33.1,30.08,NW,309,13.0,13.0,53,0.00,,,0.00,Wunderground v.1.15,2013-03-07 18:30:00,
2013-03-07 13:36:00,49.7,31.8,30.08,NNW,330,14.0,26.0,50,0.00,,,0.00,Wunderground v.1.15,2013-03-07 18:36:00,
2013-03-07 13:41:00,49.7,31.3,30.08,NW,311,16.0,16.0,49,0.00,,,0.00,Wunderground v.1.15,2013-03-07 18:41:00,
2013-03-07 13:47:00,50.2,32.3,30.08,WNW,303,13.0,18.0,50,0.00,,,0.00,Wunderground v.1.15,2013-03-07 18:47:00,
2013-03-07 13:52:00,50.2,31.8,30.08,WNW,282,13.0,20.0,49,0.00,,,0.00,Wunderground v.1.15,2013-03-07 18:52:00,
2013-03-07 13:58:00,50.3,31.3,30.06,NW,316,15.0,22.0,48,0.00,,,0.00,Wunderground v.1.15,2013-03-07 18:58:00,
2013-03-07 14:03:00,50.1,32.2,30.06,NW,319,14.0,20.0,50,0.00,,,0.00,Wunderground v.1.15,2013-03-07 19:03:00,
2013-03-07 14:08:00,51.0,32.0,30.06,NNW,336,9.0,21.0,48,0.00,,,0.00,Wunderground v.1.15,2013-03-07 19:08:00,
2013-03-07 14:14:00,51.2,32.7,30.06,NW,319,9.0,15.0,49,0.00,,,0.00,Wunderground v.1.15,2013-03-07 19:14:00,
2013-03-07 14:19:00,51.2,31.1,30.06,NW,323,11.0,22.0,46,0.00,,,0.00,Wunderground v.1.15,2013-03-07 19:19:00,
2013-03-07 14:24:00,50.8,31.3,30.06,NW,311,11.0,20.0,47,0.00,,,0.00,Wunderground v.1.15,2013-03-07 19:24:00,
2013-03-07 14:29:00,50.6,31.6,30.05,NNE,30,11.0,20.0,48,0.00,,,0.00,Wunderground v.1.15,2013-03-07 19:29:00,
2013-03-07 14:35:00,51.0,31.5,30.05,NW,324,10.0,19.0,47,0.00,,,0.00,Wunderground v.1.15,2013-03-07 19:35:00,
2013-03-07 14:40:00,50.9,31.4,30.05,NW,313,12.0,15.0,47,0.00,,,0.00,Wunderground v.1.15,2013-03-07 19:40:00,
2013-03-07 14:46:00,51.1,31.0,30.05,NNW,340,12.0,26.0,46,0.00,,,0.00,Wunderground v.1.15,2013-03-07 19:46:00,
2013-03-07 14:52:00,51.7,32.6,30.05,NW,314,11.0,12.0,48,0.00,,,0.00,Wunderground v.1.15,2013-03-07 19:52:00,
2013-03-07 14:57:00,52.5,31.2,30.05,NNW,327,11.0,13.0,44,0.00,,,0.00,Wunderground v.1.15,2013-03-07 19:57:00,
2013-03-07 15:03:00,52.3,31.6,30.05,NW,319,12.0,14.0,45,0.00,,,0.00,Wunderground v.1.15,2013-03-07 20:03:00,
2013-03-07 15:08:00,52.6,31.8,30.05,North,355,12.0,14.0,45,0.00,,,0.00,Wunderground v.1.15,2013-03-07 20:08:00,
2013-03-07 15:13:00,53.0,31.1,30.06,NNW,337,12.0,14.0,43,0.00,,,0.00,Wunderground v.1.15,2013-03-07 20:13:00,
2013-03-07 15:18:00,52.9,31.0,30.06,NW,312,10.0,14.0,43,0.00,,,0.00,Wunderground v.1.15,2013-03-07 20:18:00,
2013-03-07 15:24:00,53.2,31.3,30.06,NNW,327,9.0,13.0,43,0.00,,,0.00,Wunderground v.1.15,2013-03-07 20:24:00,
2013-03-07 15:29:00,53.4,31.4,30.06,WNW,302,7.0,13.0,43,0.00,,,0.00,Wunderground v.1.15,2013-03-07 20:29:00,
2013-03-07 15:34:00,53.4,31.4,30.06,NW,310,10.0,17.0,43,0.00,,,0.00,Wunderground v.1.15,2013-03-07 20:34:00,
2013-03-07 15:40:00,53.2,31.3,30.06,WNW,301,11.0,13.0,43,0.00,,,0.00,Wunderground v.1.15,2013-03-07 20:40:00,
2013-03-07 15:45:00,53.6,31.6,30.06,NW,316,12.0,18.0,43,0.00,,,0.00,Wunderground v.1.15,2013-03-07 20:45:00,
2013-03-07 15:50:00,53.4,30.3,30.06,NW,309,15.0,15.0,41,0.00,,,0.00,Wunderground v.1.15,2013-03-07 20:50:00,
2013-03-07 15:55:00,53.0,29.9,30.06,WNW,289,15.0,20.0,41,0.00,,,0.00,Wunderground v.1.15,2013-03-07 20:55:00,
2013-03-07 16:01:00,53.0,29.9,30.06,NW,321,14.0,15.0,41,0.00,,,0.00,Wunderground v.1.15,2013-03-07 21:01:00,
2013-03-07 16:07:00,53.0,29.9,30.06,NW,313,12.0,15.0,41,0.00,,,0.00,Wunderground v.1.15,2013-03-07 21:07:00,
2013-03-07 16:12:00,53.7,31.1,30.06,NW,305,10.0,12.0,42,0.00,,,0.00,Wunderground v.1.15,2013-03-07 21:12:00,
2013-03-07 16:18:00,54.1,30.3,30.06,NW,306,11.0,17.0,40,0.00,,,0.00,Wunderground v.1.15,2013-03-07 21:18:00,
2013-03-07 16:24:00,54.6,30.1,30.06,NNW,340,12.0,13.0,39,0.00,,,0.00,Wunderground v.1.15,2013-03-07 21:24:00,
2013-03-07 16:29:00,54.4,29.3,30.05,NNW,341,12.0,16.0,38,0.00,,,0.00,Wunderground v.1.15,2013-03-07 21:29:00,
2013-03-07 16:34:00,54.2,29.8,30.05,NW,321,11.0,16.0,39,0.00,,,0.00,Wunderground v.1.15,2013-03-07 21:34:00,
2013-03-07 16:40:00,54.5,30.6,30.05,NW,304,10.0,17.0,40,0.00,,,0.00,Wunderground v.1.15,2013-03-07 21:40:00,
2013-03-07 16:45:00,54.2,29.8,30.05,NW,315,14.0,22.0,39,0.00,,,0.00,Wunderground v.1.15,2013-03-07 21:45:00,
2013-03-07 16:51:00,54.1,29.7,30.05,NW,323,15.0,16.0,39,0.00,,,0.00,Wunderground v.1.15,2013-03-07 21:51:00,
2013-03-07 16:56:00,53.7,29.9,30.05,NW,304,13.0,16.0,40,0.00,,,0.00,Wunderground v.1.15,2013-03-07 21:56:00,
2013-03-07 17:01:00,53.3,29.6,30.05,NW,306,15.0,20.0,40,0.00,,,0.00,Wunderground v.1.15,2013-03-07 22:01:00,
2013-03-07 17:06:00,52.9,30.4,30.05,NW,323,16.0,20.0,42,0.00,,,0.00,Wunderground v.1.15,2013-03-07 22:06:00,
2013-03-07 17:11:00,52.4,30.0,30.05,NNW,338,16.0,16.0,42,0.00,,,0.00,Wunderground v.1.15,2013-03-07 22:11:00,
2013-03-07 17:17:00,51.9,31.2,30.06,NW,306,15.0,19.0,45,0.00,,,0.00,Wunderground v.1.15,2013-03-07 22:17:00,
2013-03-07 17:22:00,51.6,30.9,30.06,NW,304,14.0,19.0,45,0.00,,,0.00,Wunderground v.1.15,2013-03-07 22:22:00,
2013-03-07 17:27:00,51.3,31.7,30.06,NW,314,15.0,19.0,47,0.00,,,0.00,Wunderground v.1.15,2013-03-07 22:27:00,
2013-03-07 17:32:00,51.1,31.6,30.06,WNW,301,15.0,15.0,47,0.00,,,0.00,Wunderground v.1.15,2013-03-07 22:32:00,
2013-03-07 17:37:00,50.8,31.3,30.06,NW,321,13.0,24.0,47,0.00,,,0.00,Wunderground v.1.15,2013-03-07 22:37:00,
2013-03-07 17:42:00,50.5,31.0,30.06,NW,309,14.0,17.0,47,0.00,,,0.00,Wunderground v.1.15,2013-03-07 22:42:00,
2013-03-07 17:47:00,50.2,30.7,30.06,NNW,327,15.0,19.0,47,0.00,,,0.00,Wunderground v.1.15,2013-03-07 22:47:00,
2013-03-07 17:52:00,49.9,31.0,30.06,WNW,298,13.0,14.0,48,0.00,,,0.00,Wunderground v.1.15,2013-03-07 22:52:00,
2013-03-07 17:58:00,49.6,31.2,30.06,NW,304,11.0,14.0,49,0.00,,,0.00,Wunderground v.1.15,2013-03-07 22:58:00,
2013-03-07 18:03:00,49.2,30.8,30.06,WNW,288,13.0,21.0,49,0.00,,,0.00,Wunderground v.1.15,2013-03-07 23:03:00,
2013-03-07 18:08:00,48.8,31.0,30.06,WNW,296,15.0,21.0,50,0.00,,,0.00,Wunderground v.1.15,2013-03-07 23:08:00,
2013-03-07 18:13:00,48.4,31.1,30.06,NW,319,16.0,22.0,51,0.00,,,0.00,Wunderground v.1.15,2013-03-07 23:13:00,
2013-03-07 18:18:00,48.0,32.6,30.06,WNW,296,15.0,22.0,55,0.00,,,0.00,Wunderground v.1.15,2013-03-07 23:18:00,
2013-03-07 18:23:00,47.7,31.4,30.06,NW,319,15.0,19.0,53,0.00,,,0.00,Wunderground v.1.15,2013-03-07 23:23:00,
2013-03-07 18:29:00,47.3,31.5,30.08,NW,308,16.0,19.0,54,0.00,,,0.00,Wunderground v.1.15,2013-03-07 23:29:00,
2013-03-07 18:34:00,46.9,31.6,30.08,NNW,331,16.0,18.0,55,0.00,,,0.00,Wunderground v.1.15,2013-03-07 23:34:00,
2013-03-07 18:39:00,46.5,31.2,30.08,NW,319,16.0,19.0,55,0.00,,,0.00,Wunderground v.1.15,2013-03-07 23:39:00,
2013-03-07 18:44:00,46.2,30.5,30.08,WNW,299,14.0,18.0,54,0.00,,,0.00,Wunderground v.1.15,2013-03-07 23:44:00,
2013-03-07 18:49:00,45.9,30.2,30.08,WNW,287,14.0,19.0,54,0.00,,,0.00,Wunderground v.1.15,2013-03-07 23:49:00,
2013-03-07 18:55:00,45.5,30.3,30.08,WNW,302,15.0,20.0,55,0.00,,,0.00,Wunderground v.1.15,2013-03-07 23:55:00,
2013-03-07 19:00:00,45.1,29.4,30.09,WNW,297,14.0,14.0,54,0.00,,,0.00,Wunderground v.1.15,2013-03-08 00:00:00,
2013-03-07 19:06:00,44.8,29.6,30.09,NW,321,15.0,24.0,55,0.00,,,0.00,Wunderground v.1.15,2013-03-08 00:06:00,
2013-03-07 19:12:00,44.3,29.6,30.09,WNW,296,14.0,16.0,56,0.00,,,0.00,Wunderground v.1.15,2013-03-08 00:12:00,
2013-03-07 19:17:00,44.0,29.7,30.09,WNW,292,14.0,18.0,57,0.00,,,0.00,Wunderground v.1.15,2013-03-08 00:17:00,
2013-03-07 19:22:00,43.6,29.4,30.09,NW,309,14.0,15.0,57,0.00,,,0.00,Wunderground v.1.15,2013-03-08 00:22:00,
2013-03-07 19:27:00,43.2,29.4,30.09,West,281,14.0,23.0,58,0.00,,,0.00,Wunderground v.1.15,2013-03-08 00:27:00,
2013-03-07 19:33:00,42.9,29.5,30.09,NW,304,15.0,16.0,59,0.00,,,0.00,Wunderground v.1.15,2013-03-08 00:33:00,
2013-03-07 19:38:00,42.5,29.6,30.09,WNW,286,14.0,16.0,60,0.00,,,0.00,Wunderground v.1.15,2013-03-08 00:38:00,
2013-03-07 19:43:00,42.2,28.9,30.10,WNW,300,15.0,24.0,59,0.00,,,0.00,Wunderground v.1.15,2013-03-08 00:43:00,
2013-03-07 19:49:00,42.0,28.3,30.10,NW,309,15.0,24.0,58,0.00,,,0.00,Wunderground v.1.15,2013-03-08 00:49:00,
2013-03-07 19:54:00,41.8,28.5,30.10,WNW,299,13.0,16.0,59,0.00,,,0.00,Wunderground v.1.15,2013-03-08 00:54:00,
2013-03-07 19:59:00,41.6,28.3,30.11,WNW,288,13.0,16.0,59,0.00,,,0.00,Wunderground v.1.15,2013-03-08 00:59:00,
2013-03-07 20:04:00,41.4,28.5,30.11,WNW,300,12.0,13.0,60,0.00,,,0.00,Wunderground v.1.15,2013-03-08 01:04:00,
2013-03-07 20:10:00,41.1,28.3,30.11,NW,308,14.0,17.0,60,0.00,,,0.00,Wunderground v.1.15,2013-03-08 01:10:00,
2013-03-07 20:15:00,40.8,28.0,30.11,WNW,289,14.0,17.0,60,0.00,,,0.00,Wunderground v.1.15,2013-03-08 01:15:00,
2013-03-07 20:20:00,40.6,28.2,30.11,WNW,294,12.0,14.0,61,0.00,,,0.00,Wunderground v.1.15,2013-03-08 01:20:00,
2013-03-07 20:25:00,40.3,27.9,30.11,WNW,288,12.0,17.0,61,0.00,,,0.00,Wunderground v.1.15,2013-03-08 01:25:00,
2013-03-07 20:30:00,40.1,28.1,30.11,WNW,298,12.0,12.0,62,0.00,,,0.00,Wunderground v.1.15,2013-03-08 01:30:00,
2013-03-07 20:35:00,39.8,27.8,30.11,WNW,292,13.0,14.0,62,0.00,,,0.00,Wunderground v.1.15,2013-03-08 01:35:00,
2013-03-07 20:41:00,39.5,27.9,30.11,WNW,300,13.0,17.0,63,0.00,,,0.00,Wunderground v.1.15,2013-03-08 01:41:00,
2013-03-07 20:46:00,39.2,28.0,30.11,WNW,295,13.0,17.0,64,0.00,,,0.00,Wunderground v.1.15,2013-03-08 01:46:00,
2013-03-07 20:51:00,38.9,27.8,30.11,WNW,303,13.0,16.0,64,0.00,,,0.00,Wunderground v.1.15,2013-03-08 01:51:00,
2013-03-07 20:56:00,38.7,27.6,30.11,NNW,327,15.0,18.0,64,0.00,,,0.00,Wunderground v.1.15,2013-03-08 01:56:00,
2013-03-07 21:01:00,38.5,27.4,30.11,NW,309,16.0,16.0,64,0.00,,,0.00,Wunderground v.1.15,2013-03-08 02:01:00,
2013-03-07 21:06:00,38.4,27.7,30.11,WNW,298,15.0,17.0,65,0.00,,,0.00,Wunderground v.1.15,2013-03-08 02:06:00,
2013-03-07 21:11:00,38.2,27.5,30.11,WNW,303,15.0,16.0,65,0.00,,,0.00,Wunderground v.1.15,2013-03-08 02:11:00,
2013-03-07 21:17:00,38.1,27.0,30.12,WNW,300,17.0,21.0,64,0.00,,,0.00,Wunderground v.1.15,2013-03-08 02:17:00,
2013-03-07 21:22:00,38.0,27.3,30.12,WNW,295,17.0,23.0,65,0.00,,,0.00,Wunderground v.1.15,2013-03-08 02:22:00,
2013-03-07 21:27:00,37.8,27.1,30.12,WNW,295,15.0,23.0,65,0.00,,,0.00,Wunderground v.1.15,2013-03-08 02:27:00,
2013-03-07 21:32:00,37.5,26.8,30.12,WNW,288,11.0,12.0,65,0.00,,,0.00,Wunderground v.1.15,2013-03-08 02:32:00,
2013-03-07 21:37:00,37.3,27.0,30.12,West,281,9.0,12.0,66,0.00,,,0.00,Wunderground v.1.15,2013-03-08 02:37:00,
2013-03-07 21:42:00,37.1,27.2,30.12,WNW,292,9.0,13.0,67,0.00,,,0.00,Wunderground v.1.15,2013-03-08 02:42:00,
2013-03-07 21:48:00,36.9,27.0,30.12,WNW,287,10.0,14.0,67,0.00,,,0.00,Wunderground v.1.15,2013-03-08 02:48:00,
2013-03-07 21:53:00,36.7,26.8,30.12,West,261,9.0,16.0,67,0.00,,,0.00,Wunderground v.1.15,2013-03-08 02:53:00,
2013-03-07 21:58:00,36.6,26.7,30.12,NW,304,12.0,17.0,67,0.00,,,0.00,Wunderground v.1.15,2013-03-08 02:58:00,
2013-03-07 22:04:00,36.4,26.8,30.12,WNW,296,14.0,18.0,68,0.00,,,0.00,Wunderground v.1.15,2013-03-08 03:04:00,
2013-03-07 22:09:00,36.2,26.6,30.12,WNW,296,13.0,18.0,68,0.00,,,0.00,Wunderground v.1.15,2013-03-08 03:09:00,
2013-03-07 22:14:00,36.0,26.8,30.12,NW,317,11.0,13.0,69,0.00,,,0.00,Wunderground v.1.15,2013-03-08 03:14:00,
2013-03-07 22:20:00,35.7,26.9,30.12,NW,326,10.0,10.0,70,0.00,,,0.00,Wunderground v.1.15,2013-03-08 03:20:00,
2013-03-07 22:25:00,35.5,26.7,30.12,NW,307,8.0,10.0,70,0.00,,,0.00,Wunderground v.1.15,2013-03-08 03:25:00,
2013-03-07 22:30:00,35.2,26.7,30.12,WNW,298,7.0,8.0,71,0.00,,,0.00,Wunderground v.1.15,2013-03-08 03:30:00,
2013-03-07 22:36:00,35.0,26.5,30.12,WNW,294,8.0,14.0,71,0.00,,,0.00,Wunderground v.1.15,2013-03-08 03:36:00,
2013-03-07 22:41:00,34.7,26.6,30.12,WNW,296,9.0,9.0,72,0.00,,,0.00,Wunderground v.1.15,2013-03-08 03:41:00,
2013-03-07 22:46:00,34.6,26.8,30.12,NW,313,10.0,14.0,73,0.00,,,0.00,Wunderground v.1.15,2013-03-08 03:46:00,
2013-03-07 22:51:00,34.4,26.6,30.12,WNW,290,11.0,11.0,73,0.00,,,0.00,Wunderground v.1.15,2013-03-08 03:51:00,
2013-03-07 22:56:00,34.2,26.4,30.12,WNW,296,10.0,14.0,73,0.00,,,0.00,Wunderground v.1.15,2013-03-08 03:56:00,
2013-03-07 23:02:00,34.0,26.6,30.12,WNW,286,9.0,9.0,74,0.00,,,0.00,Wunderground v.1.15,2013-03-08 04:02:00,
2013-03-07 23:07:00,33.8,26.4,30.12,WNW,294,9.0,12.0,74,0.00,,,0.00,Wunderground v.1.15,2013-03-08 04:07:00,
2013-03-07 23:12:00,33.7,26.6,30.12,NW,321,9.0,11.0,75,0.00,,,0.00,Wunderground v.1.15,2013-03-08 04:12:00,
2013-03-07 23:17:00,33.4,26.3,30.12,NW,304,10.0,11.0,75,0.00,,,0.00,Wunderground v.1.15,2013-03-08 04:17:00,
2013-03-07 23:23:00,33.3,26.5,30.12,NW,305,11.0,13.0,76,0.00,,,0.00,Wunderground v.1.15,2013-03-08 04:23:00,
2013-03-07 23:28:00,33.0,26.3,30.13,WNW,303,11.0,14.0,76,0.00,,,0.00,Wunderground v.1.15,2013-03-08 04:28:00,
2013-03-07 23:33:00,32.8,26.4,30.13,WNW,296,11.0,16.0,77,0.00,,,0.00,Wunderground v.1.15,2013-03-08 04:33:00,
2013-03-07 23:38:00,32.6,26.2,30.13,NW,306,11.0,16.0,77,0.00,,,0.00,Wunderground v.1.15,2013-03-08 04:38:00,
2013-03-07 23:44:00,32.5,26.1,30.12,WNW,287,10.0,11.0,77,0.00,,,0.00,Wunderground v.1.15,2013-03-08 04:44:00,
2013-03-07 23:49:00,32.3,26.2,30.12,WNW,301,10.0,19.0,78,0.00,,,0.00,Wunderground v.1.15,2013-03-08 04:49:00,
2013-03-07 23:54:00,32.1,26.0,30.12,WNW,289,11.0,12.0,78,0.00,,,0.00,Wunderground v.1.15,2013-03-08 04:54:00,
2013-03-07 23:59:00,31.9,26.1,30.12,WNW,297,11.0,12.0,79,0.00,,,0.00,Wunderground v.1.15,2013-03-08 04:59:00,